GFSSW_700_rhum_159.txt.gz
RH
68 64 63 65 65 69 68 69 66 62 56 58 54 50 48 49 53 50 46 45 40 36 33 32 31 27 22 18 15 13 18 17 18 18 18 17 21 24 23 23 25 26 27 26 28
74 71 71 70 71 69 68 66 66 59 53 49 47 45 45 46 54 57 49 45 44 40 37 34 33 29 17 18 18 16 17 17 21 20 17 17 18 25 30 33 34 34 33 31 32
76 74 73 71 72 76 68 67 59 59 44 46 46 42 35 38 47 47 51 44 43 45 42 38 35 31 23 20 19 18 18 18 20 21 17 16 18 19 21 30 30 34 34 34 34
79 77 76 78 78 76 67 64 56 54 48 41 27 27 21 21 67 59 53 49 46 41 44 40 31 24 20 18 19 18 18 18 18 19 18 17 21 24 23 27 24 18 17 16 16
80 81 83 81 75 76 70 59 57 55 50 41 20 7 8 27 89 46 60 52 46 49 28 25 32 35 30 24 26 24 20 18 18 14 18 20 25 29 23 22 21 19 17 16 16
88 84 87 82 73 70 70 74 62 52 48 28 9 6 7 10 27 64 63 60 50 44 53 52 40 43 43 39 34 28 28 24 21 21 18 21 22 15 14 14 15 15 16 17 17
90 93 88 84 76 73 63 62 54 50 40 10 7 6 6 8 7 10 27 58 61 45 40 43 53 54 42 38 41 45 42 30 25 24 23 26 26 23 23 17 16 16 16 15 15
99 98 99 89 77 74 69 57 57 45 13 7 7 7 7 7 7 6 12 55 62 56 53 47 44 51 49 44 44 40 31 31 28 22 23 28 26 28 24 21 15 15 16 16 16
88 82 84 79 79 76 70 66 57 19 8 7 7 7 14 9 8 9 10 17 52 56 52 51 51 42 44 37 30 27 26 26 25 24 23 29 26 38 28 27 24 22 19 18 17
100 98 90 88 79 87 55 50 27 9 7 7 8 8 24 28 12 11 12 19 25 27 44 51 54 41 34 30 24 21 21 20 21 22 24 24 29 39 29 27 24 22 22 21 20
79 75 79 68 64 50 19 10 8 9 8 9 30 10 10 9 10 10 9 9 9 13 44 48 47 39 32 30 29 25 24 24 22 22 24 25 24 25 32 28 20 20 21 22 22
58 39 40 36 31 16 10 8 8 10 10 9 10 10 10 9 9 9 10 10 29 34 38 46 39 38 46 47 44 40 34 31 30 29 32 30 26 29 36 30 23 22 20 21 21
47 25 17 15 12 9 8 9 9 10 11 11 9 9 8 8 8 9 36 31 38 39 37 38 36 48 51 50 51 46 42 39 35 30 33 33 31 30 33 41 36 31 24 22 21
37 13 10 10 10 10 11 10 10 11 12 33 15 15 10 8 13 8 31 43 42 43 44 46 45 46 52 51 46 42 39 40 44 40 35 31 27 26 25 42 47 30 30 28 26
15 36 28 10 10 12 11 13 13 13 42 30 20 13 17 19 46 25 15 27 45 43 49 40 52 47 46 38 39 39 44 43 39 37 35 30 31 28 28 40 55 38 32 30 30
12 13 18 12 12 11 14 15 14 20 32 36 28 18 14 18 32 27 22 24 46 49 48 50 44 49 54 46 47 50 51 48 45 43 44 35 31 28 24 30 42 59 46 42 34
16 15 14 15 17 17 18 15 16 49 22 42 49 24 60 58 60 42 43 36 37 40 37 40 43 43 53 49 49 53 50 40 34 40 38 29 29 30 37 33 38 50 50 37 35
20 20 20 18 20 18 17 13 50 19 17 36 51 52 54 50 40 37 29 25 35 38 32 24 23 32 38 41 36 35 39 36 37 28 23 22 27 25 33 36 37 51 47 36 36
28 27 27 25 22 15 10 43 21 23 22 38 47 44 43 43 20 31 32 28 27 31 29 25 26 29 39 34 34 30 30 29 33 31 32 28 24 34 36 37 36 38 34 37 41
33 31 26 20 10 10 10 52 32 24 18 32 26 29 28 34 30 37 24 29 28 30 30 32 36 34 31 34 35 35 29 30 32 45 40 26 23 23 50 70 47 44 40 38 47
31 22 19 11 10 14 21 58 52 15 5 30 25 20 13 14 19 19 26 24 34 34 36 33 34 31 29 28 28 27 26 33 31 31 39 46 37 55 53 76 49 41 50 52 61
24 35 19 11 28 37 77 55 62 48 7 7 14 29 21 25 30 23 22 26 38 37 35 34 39 39 33 30 31 32 31 32 35 40 40 49 60 68 67 55 51 50 50 51 57
28 24 20 15 67 80 81 76 79 56 43 32 30 27 30 30 34 35 34 36 38 46 40 41 35 40 36 32 29 30 32 32 29 31 40 60 66 70 63 62 73 61 59 59 57
18 22 20 18 30 75 74 76 88 28 54 52 48 45 46 48 43 42 38 39 51 52 52 53 42 38 39 32 29 35 48 47 42 56 61 62 62 59 68 71 79 66 68 75 76
18 32 13 25 30 86 69 74 75 85 17 32 51 36 52 47 44 45 49 50 58 68 73 74 61 50 43 37 32 33 32 31 31 36 41 46 54 64 83 78 83 93 97 95 94
29 54 38 58 18 20 62 72 71 66 49 28 47 59 58 54 56 54 65 83 78 77 76 81 76 67 58 52 44 39 36 32 34 36 36 46 48 55 65 96 77 83 95 98 96
37 77 75 42 21 38 64 73 76 66 68 62 75 73 76 75 81 92 93 98 97 96 81 71 80 88 82 59 47 53 59 49 42 45 48 60 56 61 95 99 92 89 96 96 88

GFSSW_700_rhum_162.txt.gz
RH
64 63 63 57 57 56 58 61 65 63 62 57 51 48 46 41 40 35 40 44 42 40 37 33 31 30 27 24 20 17 17 17 16 16 17 19 20 22 26 29 31 35 32 26 31
66 65 67 65 60 59 62 61 64 59 56 56 43 44 43 35 28 26 30 44 43 41 41 38 33 32 26 18 18 18 17 17 19 21 16 17 19 20 23 24 23 24 29 30 31
69 68 69 69 65 63 62 60 62 59 50 47 43 37 25 32 26 31 33 43 44 40 41 41 37 34 30 20 20 19 18 18 17 19 17 16 16 19 27 28 27 30 28 31 31
69 70 74 74 68 64 68 69 65 59 52 43 36 36 16 7 38 34 26 40 48 45 42 40 41 33 26 21 18 20 18 18 17 18 19 17 16 18 19 30 26 26 28 32 33
70 77 77 78 74 66 74 72 71 64 65 55 46 34 11 7 45 15 16 31 44 46 45 38 32 33 32 29 24 26 24 20 17 21 21 17 18 22 22 23 25 25 20 18 17
83 80 77 74 79 78 74 69 65 60 56 50 44 24 7 7 14 8 9 25 40 54 47 49 48 36 33 35 34 32 27 24 22 20 22 24 20 22 24 17 20 21 21 21 20
87 90 85 82 85 86 84 74 64 61 52 52 42 15 6 7 7 6 6 6 9 44 53 44 41 49 44 41 38 37 39 36 33 27 23 24 25 26 29 26 23 16 14 14 14
97 95 96 91 91 78 70 71 67 64 56 53 34 9 6 6 7 7 6 6 6 28 56 51 48 41 40 45 42 38 33 33 30 29 24 24 26 29 27 28 26 23 18 16 15
100 98 100 95 83 74 66 64 60 63 62 60 42 9 8 9 10 8 8 8 12 8 29 46 46 48 44 36 34 30 30 24 24 25 24 22 25 32 32 29 29 28 26 24 22
100 100 100 97 74 78 72 66 69 69 42 42 23 12 23 19 27 10 9 9 10 10 9 11 23 44 42 36 30 22 22 22 20 22 22 22 24 27 31 30 29 28 26 22 21
100 100 99 98 83 80 68 65 55 30 29 23 49 18 47 28 10 9 10 9 9 10 19 39 41 36 34 32 30 28 26 24 20 21 22 23 23 23 30 37 29 27 27 22 19
62 84 92 100 56 58 49 37 36 28 29 16 11 9 9 36 11 10 24 16 24 28 34 36 38 38 32 38 42 36 36 36 31 28 26 26 28 27 25 28 31 28 29 26 22
53 48 57 86 42 20 17 14 13 10 12 10 10 13 14 18 11 9 44 38 33 33 35 32 29 38 41 44 42 42 40 38 37 35 34 32 29 30 28 26 35 34 33 35 30
30 42 41 38 34 22 13 15 11 13 13 26 20 19 14 13 13 10 10 37 40 36 34 34 34 34 38 41 46 47 42 34 34 37 37 35 33 30 26 25 36 36 35 44 61
17 31 36 38 23 14 22 14 15 14 46 37 43 25 23 20 56 33 18 39 43 40 40 37 37 42 46 42 38 32 36 39 46 44 40 34 32 29 26 25 30 34 46 54 62
36 21 23 20 26 32 16 17 17 28 52 34 36 18 14 16 46 48 20 21 50 46 40 39 43 39 40 47 46 41 45 45 42 41 44 36 33 32 30 29 32 40 54 48 54
15 16 23 22 22 31 18 20 21 59 22 28 47 44 39 42 53 48 33 20 39 42 39 36 37 38 40 40 44 42 46 44 39 37 42 28 25 25 25 32 35 43 48 54 45
25 22 25 21 22 22 19 20 67 25 18 22 42 56 55 49 52 39 31 36 38 34 28 28 25 24 29 40 45 35 34 39 44 41 33 24 23 21 27 27 34 49 54 46 53
26 28 27 22 24 26 26 23 31 32 23 28 41 47 44 40 34 35 29 26 19 20 31 25 21 24 32 36 30 28 29 26 26 27 31 28 24 22 28 41 50 52 61 52 49
28 26 25 26 28 27 22 28 30 30 24 32 33 38 35 38 35 25 28 22 23 26 28 30 29 27 28 33 35 33 31 31 28 43 42 29 25 31 62 61 62 60 53 55 54
39 35 32 34 29 19 20 37 44 41 27 40 37 29 27 26 28 27 29 20 29 29 34 31 32 32 31 30 28 25 24 26 27 29 41 44 37 42 64 72 63 55 43 48 67
49 63 58 72 57 27 17 55 62 50 32 20 27 27 22 16 18 18 18 18 24 29 31 26 34 34 27 26 28 27 26 27 29 32 32 40 50 50 61 62 90 61 57 56 52
78 92 82 88 41 36 54 51 66 64 47 25 19 26 28 26 26 28 29 27 30 37 44 42 36 33 32 30 31 31 30 29 28 30 35 49 42 48 59 59 70 64 56 58 61
78 100 99 84 42 64 82 75 67 71 61 49 39 34 26 28 34 30 34 33 34 40 44 46 51 48 47 37 32 30 30 29 31 53 64 54 48 36 38 45 64 66 61 65 67
73 79 63 62 29 76 80 67 63 75 69 57 50 46 42 47 39 38 37 37 42 49 46 54 54 50 52 48 44 43 40 36 30 30 30 29 29 29 37 50 63 65 76 68 75
96 92 54 63 23 34 79 77 69 67 80 37 57 50 51 49 45 40 48 51 50 59 68 81 83 73 67 60 54 51 47 43 37 30 27 25 28 31 50 62 82 84 87 89 85
89 82 98 33 86 40 27 60 68 76 68 64 63 60 56 57 58 64 62 68 84 91 84 79 70 73 74 62 60 71 59 54 47 44 44 40 42 57 63 63 82 97 98 98 90

GFSSW_700_rhum_165.txt.gz
RH
66 64 62 60 61 56 53 50 56 60 59 54 53 50 44 42 39 33 28 29 36 37 34 33 32 28 27 24 22 18 18 18 18 20 20 21 21 20 22 25 25 29 29 35 36
69 69 65 62 64 62 59 53 56 61 59 55 48 43 37 32 32 34 32 30 32 38 37 34 35 31 31 24 18 18 18 18 18 19 17 17 18 18 20 21 22 28 28 26 33
69 70 68 67 68 65 62 58 60 64 63 52 43 34 31 32 23 26 35 32 42 42 38 34 37 34 32 19 20 19 19 19 18 17 17 16 16 19 19 19 19 23 24 26 30
68 69 68 68 68 67 66 64 62 69 66 60 48 39 37 25 15 19 14 18 33 33 29 37 36 38 32 23 24 20 20 18 18 18 17 16 17 17 19 18 17 21 24 29 33
66 67 68 71 70 68 69 66 63 68 69 61 53 45 40 26 11 14 8 9 36 51 46 36 37 35 36 29 28 24 27 26 20 21 20 20 19 18 17 18 18 22 27 26 22
63 68 72 76 75 71 71 66 64 70 67 62 53 45 43 34 12 9 7 6 6 13 47 45 38 40 39 33 34 33 32 28 23 22 23 24 21 20 20 19 21 22 23 23 21
81 82 81 84 81 77 80 73 70 68 69 63 57 49 43 36 20 6 6 6 6 7 29 48 42 34 35 39 40 38 37 36 33 36 34 23 25 24 24 24 25 26 24 22 18
100 98 87 90 86 81 83 79 69 68 61 59 57 52 41 39 33 10 6 6 6 7 19 51 52 47 40 35 28 31 35 33 21 29 30 29 26 25 27 28 27 26 28 25 24
98 99 100 99 98 99 93 82 79 68 55 54 52 52 41 34 28 13 8 7 8 8 9 23 42 42 43 41 37 31 29 30 25 23 28 30 26 24 25 28 28 29 28 29 26
100 99 98 100 98 97 96 77 70 62 59 49 48 44 36 35 27 16 10 8 8 9 9 10 13 18 24 42 37 32 30 27 24 24 25 23 22 23 24 24 24 27 26 24 23
99 100 100 100 98 100 96 86 76 62 55 48 46 42 44 42 32 22 12 9 9 9 9 13 40 31 34 38 38 38 32 29 25 29 30 23 22 22 23 23 23 24 24 23 25
100 100 100 98 97 95 98 75 80 67 50 45 38 36 24 33 22 17 13 14 17 12 15 25 35 23 35 34 37 41 41 37 33 28 34 35 35 31 26 26 26 28 29 27 28
100 100 97 78 77 81 60 64 40 30 19 30 30 29 24 12 15 10 20 18 29 27 26 32 25 31 34 39 38 42 43 42 42 40 38 37 36 36 33 32 30 32 36 33 30
47 87 90 95 78 56 46 51 40 28 33 27 29 23 20 26 30 12 13 31 50 37 28 32 32 27 34 37 35 41 44 47 38 36 41 40 42 36 35 34 31 31 38 39 38
42 53 64 67 56 52 46 24 24 19 57 38 36 32 26 26 34 30 19 29 36 34 37 33 36 38 39 41 44 42 41 36 38 42 43 43 36 28 21 18 24 32 38 46 51
39 48 42 41 62 62 47 46 21 20 82 29 35 29 29 27 42 55 45 27 32 32 42 42 40 39 36 38 44 46 43 43 40 36 53 39 40 35 28 31 33 33 40 49 53
18 28 53 53 40 30 30 52 26 72 24 26 35 28 16 20 23 51 29 26 36 50 40 27 30 24 29 35 41 42 43 51 56 56 60 32 35 34 30 27 28 37 46 51 55
18 20 26 26 28 29 35 34 44 28 23 26 38 40 35 48 46 50 50 41 33 35 37 30 28 25 32 36 39 42 42 46 61 57 47 28 29 26 27 29 33 36 50 53 53
26 26 26 28 38 37 33 34 46 47 33 30 24 50 50 53 47 51 38 32 29 32 34 27 25 29 29 36 41 41 26 31 31 29 41 31 27 26 39 43 44 49 55 55 58
36 30 27 38 42 34 41 27 24 34 30 27 35 42 46 49 45 36 34 24 26 23 26 30 31 25 28 32 33 33 27 30 28 52 51 37 32 30 54 51 58 64 60 56 54
65 36 31 32 34 46 32 27 26 30 39 32 30 36 39 39 37 34 27 24 21 26 27 28 29 30 24 32 33 30 29 33 31 31 50 47 43 50 50 47 53 56 58 59 52
96 52 61 68 68 55 29 26 26 41 50 42 32 38 42 28 23 23 28 27 22 22 29 30 34 31 26 20 23 24 29 31 32 35 30 38 40 36 48 57 56 46 46 48 46
96 87 79 78 87 73 42 30 29 37 57 47 33 33 31 26 22 20 22 19 29 30 28 28 35 38 34 26 19 27 27 32 32 32 34 57 43 47 51 42 36 34 41 50 56
96 98 99 95 79 82 61 45 42 27 69 52 38 27 26 26 25 27 32 28 25 32 38 42 39 43 50 38 44 36 27 28 39 38 37 33 34 31 32 32 30 40 44 54 63
95 96 92 92 94 90 80 75 53 61 64 61 46 24 24 26 28 29 27 34 35 38 38 37 41 39 30 34 47 46 40 33 44 48 49 40 35 30 26 26 33 42 48 58 70
92 97 90 93 70 81 80 74 71 63 73 66 56 39 41 43 37 41 40 40 38 37 42 47 52 63 68 71 68 67 62 60 55 51 47 47 44 42 41 41 51 50 59 66 86
85 92 97 89 92 54 59 67 69 80 94 86 74 52 48 56 51 49 48 45 53 63 62 76 80 82 78 73 76 71 63 51 49 54 55 51 45 49 47 43 43 52 55 58 88

GFSSW_700_rhum_168.txt.gz
RH
67 67 65 63 62 58 58 54 53 50 52 57 54 51 44 39 34 30 33 32 28 32 36 35 34 31 28 26 23 22 19 18 18 19 22 22 23 23 28 30 28 26 26 25 29
68 69 64 64 62 61 61 60 53 51 52 56 53 46 36 26 24 28 27 35 28 37 39 36 38 34 30 25 21 22 20 18 19 18 18 18 19 21 22 22 21 22 30 28 23
69 70 67 65 64 62 63 61 60 53 52 56 56 53 36 32 22 22 18 14 13 20 37 41 37 36 32 26 20 20 19 20 19 18 18 17 18 17 17 18 18 19 23 21 21
66 68 68 68 65 65 62 62 60 60 53 54 58 55 50 41 28 15 13 12 10 15 33 40 40 37 34 25 22 21 20 20 20 21 20 19 19 17 17 17 17 18 20 19 20
61 64 66 66 64 61 65 63 61 61 59 50 56 57 50 44 37 27 9 9 6 13 35 45 40 37 37 31 23 24 21 20 21 22 21 21 20 19 18 19 17 17 20 22 23
53 55 60 60 61 62 66 70 64 61 64 62 51 54 53 46 38 35 26 6 6 5 7 17 43 42 44 36 32 28 24 23 25 25 22 23 27 22 20 19 20 20 21 22 23
57 51 59 66 62 65 72 69 68 70 59 62 56 52 49 49 44 38 36 26 6 6 6 12 38 41 37 37 42 37 35 35 30 30 26 25 33 28 26 25 25 26 27 27 27
76 77 84 82 83 80 58 67 74 68 64 67 62 55 44 42 37 35 34 27 9 6 6 9 27 51 48 45 38 35 29 26 22 26 28 33 32 30 27 25 25 24 26 27 28
70 89 81 77 99 85 97 80 77 73 75 63 64 57 43 37 35 33 30 14 9 7 8 9 11 34 46 44 40 37 33 30 27 26 25 25 29 30 30 28 24 22 22 22 24
94 98 89 74 78 92 89 80 84 84 76 67 60 55 44 40 40 36 31 17 9 8 8 10 12 11 11 24 27 36 38 39 36 26 26 24 29 30 29 24 23 23 23 25 23
99 100 95 99 98 83 80 76 82 77 69 63 62 58 50 44 40 35 26 13 12 9 9 12 14 10 18 34 40 37 36 40 32 31 32 35 26 24 24 24 23 23 26 27 26
100 100 100 100 100 98 93 94 95 73 60 56 58 57 52 43 42 35 26 25 18 14 15 16 15 12 22 33 41 42 44 42 42 41 41 38 35 36 37 37 35 27 31 31 30
100 100 100 99 100 100 98 98 93 82 66 54 46 48 45 36 35 33 26 25 18 18 19 21 16 24 32 33 35 42 41 44 46 44 43 42 38 34 32 34 34 30 32 34 34
81 85 91 47 58 76 85 78 77 66 60 46 33 31 35 32 24 22 22 19 26 25 28 40 28 20 25 33 35 41 38 42 44 46 42 42 45 32 23 20 31 31 27 32 37
21 30 55 70 44 49 58 56 36 37 50 37 34 30 30 27 28 31 27 25 23 27 41 32 33 36 35 34 39 42 42 40 42 41 40 41 39 27 26 18 23 29 33 34 41
28 23 31 42 54 52 56 57 57 31 63 30 34 30 30 27 28 31 33 36 31 30 42 48 37 35 36 37 40 44 43 40 40 40 52 37 37 35 29 36 33 27 26 37 44
24 20 24 39 55 49 52 65 70 43 33 28 32 31 27 22 24 33 37 45 46 45 39 33 32 29 33 35 39 43 46 48 52 60 56 36 32 34 35 38 25 24 28 28 39
25 21 20 21 54 57 49 48 68 55 40 36 44 29 45 31 27 35 44 39 32 41 39 39 30 29 27 30 29 36 40 46 67 65 51 35 30 28 26 23 30 40 41 45 44
46 30 23 28 34 48 69 64 42 45 38 37 31 28 32 39 46 55 53 45 42 37 41 32 29 24 27 29 35 42 44 37 42 41 44 32 29 34 37 43 44 47 52 53 53
69 58 30 30 45 56 75 43 32 32 39 39 35 30 48 44 49 51 54 36 36 34 32 27 32 28 30 33 36 42 38 32 33 46 51 39 32 29 42 45 49 50 50 52 52
76 81 60 35 47 62 54 40 30 26 39 38 34 32 33 45 49 48 40 36 24 25 26 26 28 28 28 26 34 34 34 32 34 32 57 56 41 31 45 48 48 50 56 51 38
95 82 88 56 65 60 40 36 33 35 41 54 40 37 33 40 35 49 35 31 27 23 21 28 28 32 27 25 26 27 30 34 35 36 36 42 40 32 33 48 52 52 40 38 35
96 90 98 95 60 44 42 36 42 36 33 59 50 39 34 37 41 44 45 27 25 24 24 23 32 35 29 20 20 20 30 36 39 34 36 54 40 36 50 50 32 35 36 32 34
98 97 96 97 87 74 66 53 50 34 34 61 53 43 35 34 41 38 33 32 32 28 30 28 30 27 33 31 37 34 30 30 37 53 47 43 40 36 36 33 36 32 28 30 38
79 89 94 82 97 94 87 84 77 63 42 38 62 48 33 31 35 37 38 30 26 30 32 38 40 37 38 40 37 32 28 21 35 50 63 30 38 32 33 45 46 45 46 46 50
100 82 74 95 87 93 96 92 85 72 63 71 56 55 42 32 33 39 38 34 33 29 33 38 39 40 42 44 51 55 66 65 50 41 55 50 40 46 50 52 50 48 46 45 46
66 32 87 64 76 94 80 78 77 78 86 82 73 64 54 57 45 40 40 39 48 44 47 48 51 55 67 74 79 74 47 32 23 41 53 58 49 54 56 51 55 60 60 62 66

GFSSW_700_rhum_171.txt.gz
RH
62 62 59 60 57 55 55 56 52 48 47 40 40 45 46 38 26 22 27 30 34 31 28 33 31 30 30 28 25 23 20 19 19 20 21 22 24 28 32 36 37 35 31 26 26
63 62 59 62 59 56 55 57 56 50 48 43 39 49 48 32 32 19 21 17 14 20 33 34 34 32 32 21 22 22 21 19 19 19 18 19 20 21 21 22 23 20 19 21 24
64 63 60 60 59 57 56 55 57 52 50 45 39 42 52 36 36 25 13 13 14 10 16 21 33 34 36 26 20 20 20 20 20 19 19 18 18 17 17 17 17 18 19 19 20
59 59 59 59 60 58 57 51 54 53 46 42 42 40 51 48 43 38 27 9 9 6 11 32 27 30 38 25 22 23 21 21 20 20 19 19 18 17 17 16 17 18 18 18 20
50 50 49 49 50 49 50 48 47 51 45 42 41 45 43 48 47 41 37 22 7 6 5 5 12 34 35 35 25 26 26 22 22 22 22 21 20 20 20 19 19 18 18 18 20
39 41 40 42 43 40 40 45 49 46 48 42 44 49 45 44 45 40 38 39 30 6 6 5 6 25 36 37 36 31 27 25 24 26 24 23 23 24 25 26 21 19 21 23 26
67 47 67 68 59 62 56 52 49 53 44 45 45 47 45 51 46 42 38 32 35 17 7 6 6 12 30 34 35 37 36 33 31 31 33 29 26 26 28 32 28 25 25 25 27
73 77 66 60 59 63 61 63 64 71 59 54 57 54 48 50 46 38 33 32 28 18 8 7 6 7 20 38 42 39 34 28 22 25 27 30 33 33 34 31 28 26 24 22 23
99 90 78 74 70 69 67 66 68 63 74 63 64 63 50 48 43 37 38 35 29 12 8 10 9 8 14 38 44 40 38 35 31 32 26 25 26 26 28 30 31 29 24 23 25
83 80 89 81 83 82 68 69 77 74 71 70 67 60 51 48 47 45 43 38 32 15 10 10 10 10 11 13 18 24 40 39 37 34 32 30 26 27 31 31 31 28 24 24 24
100 95 92 95 98 99 79 84 92 91 78 67 64 58 52 53 54 48 44 40 33 20 13 12 13 11 11 22 31 42 44 41 36 38 38 34 32 26 27 27 27 24 25 25 25
87 86 100 90 100 100 100 100 99 92 84 74 67 60 40 48 44 44 47 42 36 28 25 20 16 13 12 18 31 40 42 42 45 44 43 42 40 36 36 32 28 30 35 35 28
99 100 100 100 100 98 100 98 97 94 84 64 56 48 40 37 30 27 45 44 38 30 24 18 18 16 20 16 31 36 37 38 46 44 43 43 40 36 34 36 36 33 34 36 36
93 62 99 91 75 80 92 94 81 64 66 56 46 37 31 27 29 30 39 39 46 38 28 27 25 18 19 24 30 34 36 44 43 42 42 41 46 40 37 33 28 30 29 31 31
33 27 19 22 32 44 50 57 60 60 64 43 37 33 29 29 28 28 26 25 23 23 29 29 33 34 32 30 31 38 42 42 43 42 42 42 40 35 30 32 24 30 31 26 30
21 24 28 30 37 46 46 57 55 48 45 37 36 34 32 31 30 29 32 32 33 30 29 28 29 34 37 38 40 42 45 45 42 43 53 37 38 36 27 32 33 33 28 23 23
17 18 19 23 28 41 50 56 59 51 37 35 34 35 37 35 30 32 33 36 39 45 40 31 27 25 37 37 37 42 45 48 44 53 54 30 38 36 33 33 32 28 22 26 28
19 19 23 23 25 44 57 60 73 56 53 41 46 41 36 37 41 39 30 41 50 48 49 39 34 24 28 30 27 34 42 44 58 68 54 41 37 32 30 27 23 29 40 36 36
30 22 26 26 23 30 58 63 61 58 51 42 40 38 34 30 29 42 44 35 41 37 48 38 35 28 30 30 33 39 39 39 42 49 53 40 34 31 29 26 32 39 43 44 48
53 41 51 42 29 29 78 70 54 51 47 42 42 40 36 43 50 48 50 45 46 46 43 40 38 31 34 35 36 38 37 43 40 46 56 41 35 28 25 26 34 43 39 41 49
82 51 65 66 39 42 83 98 47 45 51 43 41 38 36 36 34 53 49 45 27 32 34 32 32 28 28 30 32 40 39 37 34 33 57 66 40 30 33 39 44 49 53 49 45
94 90 75 80 59 48 45 36 39 36 40 38 40 43 42 39 37 46 54 56 37 27 25 27 30 29 26 26 28 32 31 32 37 38 42 50 47 34 33 35 51 48 33 38 40
97 93 92 95 79 61 45 37 39 34 38 38 50 55 47 45 39 38 42 49 60 54 31 28 28 34 31 24 18 19 28 34 40 40 38 51 42 38 48 52 52 40 36 36 36
86 100 97 97 90 88 73 55 46 37 38 43 41 57 50 48 41 33 36 41 53 43 41 40 32 31 33 28 28 26 26 35 36 43 38 37 35 33 32 35 33 30 42 44 41
98 84 100 96 100 100 97 81 69 58 55 55 42 47 57 52 41 35 36 36 37 37 57 38 39 43 36 35 37 36 34 36 42 52 62 26 34 26 18 21 32 48 50 50 48
64 88 92 84 86 88 97 91 80 78 80 68 81 45 39 61 48 37 35 42 40 42 42 38 40 38 38 37 38 39 46 47 41 32 42 27 28 32 34 55 47 51 47 47 47
20 70 72 80 72 68 70 68 66 80 85 85 78 89 81 67 61 51 44 47 47 41 40 58 50 41 46 45 50 60 47 32 26 38 43 54 28 61 53 45 52 55 58 60 58